Weather in Concord

United States     43°11′51″N   71°31′47″W
temp.,
°C
wind,
m/s
gust,
m/s
humid.,
%
clouds,
%
prec.,
mm/h
press.,
hPa
HPBL,
m
12 may, wed
wed1223:00+4w37630 0.0 1015206
02:00+3w310735 0.0 1015459
05:00+4wnw51180100 0.0 1015682
08:00+7nw5107569 0.0 1017971
11:00+14nw56465 0.0 10171628
14:00+14nw5743100 0.1 10172400
17:00+14nw474497 0.1 10182257
20:00+8nnw22695 0.1 102016
13 may, thu
thu1323:00+7wnw117680 0.0 102118
02:00+4nw11925 0.0 102112
05:00+3nw11945 0.0 102112
08:00+10nw236165 0.0 1022294
11:00+16nw4534100 0.0 10212740
14:00+18nnw4631100 0.0 10202966
17:00+18nw463317 0.0 10192545
20:00+11wnw22652 0.0 102022
14 may, fri
fri1423:00+8nw227160 0.0 102215
02:00+7w117977 0.0 102126
05:00+6nw22935 0.0 102227
08:00+13nw26621 0.0 1022320
11:00+19nw47372 0.0 10212228
14:00+19n364087 0.0 10202443
17:00+20n26377 0.0 10202204
20:00+12wnw116535 0.1 102110
15 may, sat
sat1523:00+9nw11843 0.1 102210
02:00+8nw11875 0.1 102311
05:00+7wnw11905 0.0 102310
08:00+13wnw12665 0.0 1024219
11:00+21wnw233766 0.0 10222022
14:00+22wnw243199 0.0 10213232
17:00+21wnw133761 0.0 10201945
20:00+12ene2384100 0.1 102244
16 may, sun
sun1623:00+9e1192100 0.4 102210
02:00+8nw1194100 0.4 102312
05:00+8nw1194100 0.0 102314
08:00+12nw2478100 0.0 1024190
11:00+19nw2341100 0.0 10231664
14:00+20w1341100 0.0 10212164
17:00+18se2454100 0.1 1021846
20:00+11ssw1397100 6.5 1023110